User: anonymous   Login
Location: Gollag?dem
(16.8053°N, 80.8024°E)
Time: 11:27:53
(UTC+00:00)
Language:

Cosmos 2084 Rocket - Orbit

View from above orbital plane
View from above orbital plane
View from above satellite
View from above satellite

Ground track
Ground track

The orbit data is extracted from the following two-line orbital elements,

1 20666U 90055D   20304.85824912 +.00000030 +00000-0 +21040-4 0  9991
2 20666 062.7871 352.1807 0065249 006.0410 354.1455 14.92376848645505
Epoch (UTC): 30 October 2020 20:35:52
Eccentricity: 0.0065249
inclination: 62.7871°
perigee height: 545 km
apogee height: 636 km
right ascension of ascending node: 352.1807°
argument of perigee: 6.0410°
revolutions per day: 14.92376848
mean anomaly at epoch: 354.1455°
orbit number at epoch: 64550

The dashed part of the orbit path shows where the satellite is in the earth's shadow,  

DLR